User: anonymous   Login
Location: Fort Wayne
(41.1310°N, 85.1290°W)
Time: 02:07:56
(UTC-04:00)
Language:

IDEFIX/ARIANE 42P - Orbit

View from above orbital plane
View from above orbital plane
View from above satellite
View from above satellite

Ground track
Ground track

The orbit data is extracted from the following two-line orbital elements,

1 27422U 02021B   15210.49417872  .00000031  00000-0  28215-4 0  9999
2 27422 098.2549 237.5301 0013612 115.9343 244.3244 14.29200495688300
Epoch (UTC): 29 July 2015 11:51:37
Eccentricity: 0.0013612
inclination: 98.2549°
perigee height: 784 km
apogee height: 804 km
right ascension of ascending node: 237.5301°
argument of perigee: 115.9343°
revolutions per day: 14.29200495
mean anomaly at epoch: 244.3244°
orbit number at epoch: 68830

The dashed part of the orbit path shows where the satellite is in the earth's shadow,  

DLR